FENGYUN 1C DEB, 37420

Orbit data source: Space-Track

FENGYUN 1C DEB, 37420 is space debris in SSO originally from a launch on Mon, 10 May 1999 UTC launched from the Taiyaun Space Center, China (TSC). Fengyun 1C debris stems from the Chinese weather satellite Fengyun-1C, which was intentionally destroyed by a Chinese anti-satellite missile in 2007. This event dramatically increased the amount of space debris, with thousands of trackable fragments posing hazards to satellites and human spaceflight. The Fengyun 1C debris cloud has become a focal point in discussions about space sustainability and the need for international regulations to prevent the creation of new debris.

Loading next visibility...
Identifier
37420, 1999-025EGN
Orbit
SSO
Country
Flag of CNCN / PRC
Related business
Manufacturer
Unknown
Mission
Spacecraft
Bus & Motor
Unknown
Mass
Unknown
Launch date (UTC)
1999-05-10 (27 years ago)
Launch vehicle
Unknown
Launch site
Taiyaun Space Center, China (TSC)
Object type
Payload
Rocket body
Debris
Shape & HBR
Unknown shape, 0.1 m
Radar Cross Section
Small (<0.1 m²)

Expand to show TLE details & history
Last TLE update: 1 week ago

TLE from 1 week ago
0 FENGYUN 1C DEB
1 37420U 99025EGN 26137.23103810  .00000045  00000-0  58495-4 0  9992
2 37420  98.8705 127.4415 0073678 201.5223 158.2839 13.99895109619405
Epoch: 2026-05-17T05:32Z
TLE epoch observation values (Epoch: 2026-05-17T05:32:41.691Z)
Latitude
-0.00012°
Longitude
169.33118°
Altitude
946.881 km
Speed
7.353 km/s
True Right ascension
08h 29m 45s
True Declination
0° 00' 00"
Sunlit
Object was in daylight at epoch
Visualization orbit readout
Latitude
Unknown
Longitude
Unknown
Altitude
Unknown
Speed
Unknown
Apparent Right ascension
Unknown
Apparent Declination
Unknown
Sunlit
N/A
Visualization observer readout
Local Sidereal Time
14:00:48
Azimuth
Unknown
Elevation
Unknown
Doppler factor
Unknown
Orbital elements
Apogee altitude
944.912 km
Perigee altitude
837.791 km
Semi-major axis
7,269.488 km
Eccentricity
0.00737
Inclination
98.8705°
RAAN
127.4415°
Arg. of periapsis
201.5223°
True anomaly
158.59364°
Mean anomaly
158.2839°
Eccentric anomaly
158.43903°
Mean motion
3.50177 °/min
Orbital period
102.81 mins
BSTAR
0.000058495
Loading maneuver chart data...
Computing Atmospheric mass density...
Loading historical data...
Loading historical data...
Loading historical data...
Loading historical data...
Loading historical data...
Loading historical data...
Loading historical data...

Documentation

Showing up to 5 results
|